Location: Unspecified
(0.0000°N, 0.0000°E)
Time: 13:51:21
(UTC+00:00)

Courier 1B - Visible Passes

Search period start: 30 September 2014 00:00
Search period end: 10 October 2014 00:00
Orbit: 963 x 1209 km, 28.3° (Epoch: 29 September)

Date Brightness Start Highest point End Pass type
(mag) Time Alt. Az. Time Alt. Az. Time Alt. Az.
30 Sep 9.1 02:58:34 35° E 02:58:34 35° E 03:02:51 10° ESE visible
30 Sep 8.3 04:45:30 23° W 04:49:52 45° SSW 04:57:11 10° SE visible
30 Sep 9.8 18:15:17 10° NW 18:18:24 14° NNW 18:21:29 10° N visible
01 Oct 7.8 03:55:28 59° SW 03:55:55 60° SSW 04:03:26 10° SE visible
02 Oct 9.0 03:05:24 36° SE 03:05:24 36° SE 03:09:33 10° ESE visible
02 Oct 9.0 04:52:19 16° WSW 04:56:38 26° SSW 05:02:49 10° SSE visible
03 Oct 10.3 02:15:17 11° ESE 02:15:17 11° ESE 02:15:31 10° ESE visible
03 Oct 8.5 04:02:11 34° SW 04:02:35 34° SSW 04:09:19 10° SE visible
04 Oct 9.2 03:12:00 29° SSE 03:12:00 29° SSE 03:15:42 10° SE visible
04 Oct 9.6 04:59:35 10° SW 05:03:39 15° SSW 05:07:51 10° SSE visible
05 Oct 10.3 02:21:46 11° SE 02:21:46 11° SE 02:21:57 10° SE visible
05 Oct 9.2 04:08:40 20° SSW 04:09:29 20° SSW 04:14:41 10° SSE visible
06 Oct 9.5 03:18:22 20° S 03:18:22 20° S 03:21:21 10° SSE visible
07 Oct 9.7 04:14:56 11° SSW 04:16:40 12° SSW 04:18:59 10° S visible
08 Oct 9.8 03:24:33 13° S 03:24:33 13° S 03:26:20 10° SSE visible
